This is the latest recevied weather packets stored in our database for station/object KG7QQL. If no packets are shown the sender has not sent any weather packets the latest 10 day(s).
| Time | Temp. | Humidity | Pressure | Rain* | Wind** | Luminosity | Snow |
|---|---|---|---|---|---|---|---|
| 1777792780 | 14.44° C | 74% | - | 0 mm | - | - | - |
| 1777792477 | 13.89° C | 74% | - | 0 mm | - | - | - |
| 1777792173 | 13.89° C | 73% | - | 0 mm | - | - | - |
| 1777791870 | 14.44° C | 72% | - | 0 mm | - | - | - |
| 1777791568 | 14.44° C | 73% | - | 0 mm | - | - | - |
| 1777791266 | 14.44° C | 72% | - | 0 mm | - | - | - |
| 1777790963 | 14.44° C | 71% | - | 0 mm | - | - | - |
| 1777790661 | 15° C | 70% | - | 0 mm | - | - | - |
| 1777790357 | 15° C | 68% | - | 0 mm | - | - | - |
| 1777790055 | 15.56° C | 67% | - | 0 mm | - | - | - |
| 1777789753 | 15.56° C | 65% | - | 0 mm | - | - | - |
| 1777789452 | 15.56° C | 64% | - | 0 mm | - | - | - |
| 1777789149 | 15.56° C | 65% | - | 0 mm | - | - | - |
| 1777788845 | 15.56° C | 64% | - | 0 mm | - | - | - |
| 1777788541 | 16.11° C | 65% | - | 0 mm | - | - | - |
| 1777788236 | 16.11° C | 63% | - | 0 mm | - | - | - |
| 1777787932 | 16.11° C | 65% | - | 0 mm | - | - | - |
| 1777787627 | 16.11° C | 65% | - | 0 mm | - | - | - |
| 1777787323 | 16.67° C | 58% | - | 0 mm | - | - | - |
| 1777787019 | 16.11° C | 62% | - | 0 mm | - | - | - |
| 1777786717 | 16.67° C | 62% | - | 0 mm | - | - | - |
| 1777786416 | 17.22° C | 59% | - | 0 mm | - | - | - |
| 1777786112 | 17.78° C | 57% | - | 0 mm | - | - | - |
| 1777785809 | 17.22° C | 56% | - | 0 mm | - | - | - |
| 1777785505 | 17.22° C | 57% | - | 0 mm | - | - | - |
* Rain latest hour (hover to see other rain measurements)
** Current wind speed in m/s (hover to see current wind gust speed)